TimePDT,TemperatureF,Dew PointF,Humidity,Sea Level PressureIn,VisibilityMPH,Wind Direction,Wind SpeedMPH,Gust SpeedMPH,PrecipitationIn,Events,Conditions,WindDirDegrees,DateUTC
12:53 AM,57.9,42.1,56,30.23,10.0,Calm,Calm,-,N/A,,Clear,0,2013-04-27 07:53:00
1:53 AM,51.1,43.0,74,30.24,10.0,Calm,Calm,-,N/A,,Clear,0,2013-04-27 08:53:00
2:53 AM,48.0,43.0,83,30.24,10.0,Calm,Calm,-,N/A,,Clear,0,2013-04-27 09:53:00
3:53 AM,46.9,42.1,83,30.24,10.0,Calm,Calm,-,N/A,,Clear,0,2013-04-27 10:53:00
4:53 AM,46.0,43.0,89,30.24,10.0,Calm,Calm,-,N/A,,Clear,0,2013-04-27 11:53:00
5:53 AM,45.0,42.1,90,30.24,10.0,Calm,Calm,-,N/A,,Clear,0,2013-04-27 12:53:00
6:53 AM,45.0,42.1,90,30.24,10.0,Calm,Calm,-,N/A,,Clear,0,2013-04-27 13:53:00
7:53 AM,50.0,43.0,77,30.25,10.0,Calm,Calm,-,N/A,,Clear,0,2013-04-27 14:53:00
8:53 AM,55.0,44.1,67,30.26,10.0,Variable,3.5,-,N/A,,Clear,0,2013-04-27 15:53:00
9:53 AM,61.0,39.9,46,30.27,10.0,Variable,5.8,-,N/A,,Clear,0,2013-04-27 16:53:00
10:53 AM,64.0,41.0,43,30.27,10.0,SW,8.1,-,N/A,,Clear,220,2013-04-27 17:53:00
11:53 AM,66.9,39.0,36,30.26,10.0,Variable,5.8,-,N/A,,Clear,0,2013-04-27 18:53:00
12:53 PM,69.1,37.0,31,30.26,10.0,WSW,11.5,16.1,N/A,,Clear,250,2013-04-27 19:53:00
1:53 PM,70.0,39.0,32,30.24,10.0,SW,8.1,-,N/A,,Clear,230,2013-04-27 20:53:00
2:53 PM,71.1,37.9,30,30.23,10.0,WSW,12.7,20.7,N/A,,Clear,250,2013-04-27 21:53:00
3:53 PM,70.0,34.0,27,30.21,10.0,SW,9.2,-,N/A,,Clear,220,2013-04-27 22:53:00
4:53 PM,70.0,39.9,33,30.20,10.0,West,10.4,16.1,N/A,,Mostly Cloudy,260,2013-04-27 23:53:00
5:53 PM,69.1,43.0,39,30.21,10.0,Variable,3.5,-,N/A,,Clear,0,2013-04-28 00:53:00
6:53 PM,66.0,42.1,42,30.21,10.0,Calm,Calm,-,N/A,,Clear,0,2013-04-28 01:53:00
7:53 PM,61.0,46.0,58,30.22,10.0,NNE,8.1,-,N/A,,Scattered Clouds,30,2013-04-28 02:53:00
8:53 PM,57.9,46.0,65,30.23,10.0,NNE,5.8,-,N/A,,Scattered Clouds,30,2013-04-28 03:53:00
9:53 PM,55.9,46.0,69,30.26,10.0,ENE,3.5,-,N/A,,Partly Cloudy,60,2013-04-28 04:53:00
10:53 PM,55.0,46.9,74,30.27,10.0,East,3.5,-,N/A,,Overcast,90,2013-04-28 05:53:00
11:53 PM,54.0,46.9,77,30.27,10.0,Calm,Calm,-,N/A,,Overcast,0,2013-04-28 06:53:00